Hebbronville, TX

10:45 AM CST on November 18, 2017 (GMT -0600)
Hogg County

Weather History for KHBV - March, 2013

Change the Weather History Date:

Wednesday, March 27, 2013

  Actual Average (KALI) Record (KALI)
Temperature  
Mean Temperature 62 °F -  
Max Temperature 69 °F 76 °F 97 °F (2009)
Min Temperature 56 °F 55 °F 43 °F (2013)
Degree Days  
Heating Degree Days 2    
Growing Degree Days 12 (Base 50)    
Moisture  
Dew Point 41 °F    
Average Humidity 46    
Maximum Humidity 59    
Minimum Humidity 39    
Precipitation  
Precipitation 0.00 in - - ()
Sea Level Pressure  
Sea Level Pressure 30.24 in    
Wind  
Wind Speed 12 mph (SE)    
Max Wind Speed 20 mph    
Max Gust Speed 23 mph    
Visibility 10 miles    
Events      
Averages and records for this station are not official NWS values.
T = Trace of Precipitation, MM = Missing Value Source: NWS Daily Summary

Daily Weather History Graph

Daily Weather History Graph

Search for Another Location

Airport or City:

Trip Planner

Search our weather history database for the weather conditions in past years. The results will help you decide how hot, cold, wet, or windy it might be!

Date:

Astronomy

Mar. 27, 2013 Rise Set
Actual Time 7:30 AM CDT 7:50 PM CDT
Civil Twilight 7:07 AM CDT 8:13 PM CDT
Nautical Twilight 6:40 AM CDT 8:40 PM CDT
Astronomical Twilight 6:12 AM CDT 9:08 PM CDT
Moon 8:27 PM CDT (3/27) 7:27 AM CDT (3/27)
Length of Visible Light 13h 06m
Length of Day
12h 19m
Full, 100% of the Moon is Illuminated
Mar 27
Full
Apr 2
Last Quarter
Apr 10
New
Apr 18
First Quarter
Apr 25
Full

Hourly Weather History & Observations

Time (CDT) Temp. Dew Point Humidity Pressure Visibility Wind Dir Wind Speed Gust Speed Precip Events Conditions
12:15 AM 56.8 °F 31.8 °F 39% 30.32 in 10.0 mi SE 11.5 mph - N/A   Overcast
12:35 AM 56.8 °F 32.0 °F 39% 30.32 in 10.0 mi SE 13.8 mph - N/A   Overcast
12:55 AM 56.8 °F 32.0 °F 39% 30.31 in 10.0 mi SE 13.8 mph - N/A   Overcast
1:15 AM 56.8 °F 32.0 °F 39% 30.31 in 10.0 mi SE 13.8 mph 17.3 mph N/A   Overcast
1:35 AM 56.8 °F 32.4 °F 40% 30.30 in 10.0 mi SE 12.7 mph - N/A   Overcast
1:55 AM 56.8 °F 32.9 °F 40% 30.29 in 10.0 mi SE 8.1 mph - N/A   Overcast
2:15 AM 56.8 °F 33.1 °F 41% 30.29 in 10.0 mi SE 11.5 mph - N/A   Overcast
2:35 AM 56.8 °F 33.6 °F 42% 30.28 in 10.0 mi SE 10.4 mph - N/A   Overcast
2:55 AM 56.8 °F 34.2 °F 42% 30.28 in 10.0 mi SE 9.2 mph - N/A   Overcast
3:15 AM 56.7 °F 34.7 °F 44% 30.27 in 10.0 mi SE 10.4 mph - N/A   Overcast
3:35 AM 56.7 °F 34.9 °F 44% 30.26 in 10.0 mi SE 9.2 mph - N/A   Overcast
3:55 AM 56.7 °F 35.2 °F 45% 30.26 in 10.0 mi SE 10.4 mph - N/A   Overcast
4:15 AM 56.7 °F 35.6 °F 45% 30.25 in 10.0 mi SE 10.4 mph - N/A   Overcast
4:35 AM 56.7 °F 35.8 °F 46% 30.24 in 10.0 mi ESE 9.2 mph - N/A   Overcast
4:55 AM 56.7 °F 36.3 °F 47% 30.25 in 10.0 mi ESE 8.1 mph - N/A   Overcast
5:15 AM 56.8 °F 36.5 °F 47% 30.25 in 10.0 mi ESE 6.9 mph - N/A   Overcast
5:35 AM 56.8 °F 36.7 °F 47% 30.25 in 10.0 mi ESE 8.1 mph - N/A   Overcast
5:55 AM 56.8 °F 36.9 °F 47% 30.25 in 10.0 mi ESE 9.2 mph - N/A   Overcast
6:15 AM 57.0 °F 37.4 °F 48% 30.26 in 10.0 mi ESE 8.1 mph - N/A   Overcast
6:35 AM 57.0 °F 37.4 °F 48% 30.25 in 10.0 mi East 8.1 mph - N/A   Overcast
6:55 AM 56.7 °F 37.4 °F 49% 30.26 in 10.0 mi ESE 6.9 mph - N/A   Overcast
7:15 AM 56.7 °F 37.8 °F 49% 30.26 in 10.0 mi ESE 10.4 mph - N/A   Overcast
7:35 AM 56.7 °F 38.1 °F 50% 30.27 in 10.0 mi ESE 8.1 mph - N/A   Overcast
7:55 AM 56.8 °F 38.5 °F 50% 30.27 in 10.0 mi ESE 8.1 mph - N/A   Overcast
8:15 AM 57.2 °F 38.8 °F 50% 30.27 in 10.0 mi ESE 9.2 mph - N/A   Overcast
8:35 AM 57.4 °F 39.2 °F 51% 30.28 in 10.0 mi ESE 10.4 mph - N/A   Overcast
8:55 AM 57.6 °F 39.2 °F 50% 30.28 in 10.0 mi ESE 10.4 mph - N/A   Overcast
9:15 AM 58.1 °F 39.6 °F 50% 30.29 in 10.0 mi ESE 9.2 mph - N/A   Overcast
9:35 AM 58.8 °F 39.7 °F 49% 30.29 in 10.0 mi ESE 11.5 mph - N/A   Overcast
9:55 AM 59.5 °F 40.1 °F 49% 30.30 in 10.0 mi SE 9.2 mph - N/A   Overcast
10:15 AM 60.3 °F 40.1 °F 47% 30.30 in 10.0 mi ESE 12.7 mph - N/A   Overcast
10:35 AM 61.0 °F 40.5 °F 47% 30.30 in 10.0 mi SE 13.8 mph 23.0 mph N/A   Overcast
10:55 AM 61.9 °F 40.5 °F 45% 30.30 in 10.0 mi SE 19.6 mph - N/A   Overcast
11:15 AM 62.8 °F 40.1 °F 43% 30.29 in 10.0 mi SE 12.7 mph 23.0 mph N/A   Overcast
11:35 AM 63.3 °F 40.3 °F 43% 30.29 in 10.0 mi SE 16.1 mph - N/A   Overcast
11:55 AM 63.1 °F 40.8 °F 44% 30.29 in 10.0 mi SE 12.7 mph - N/A   Overcast
12:15 PM 63.7 °F 41.2 °F 44% 30.29 in 10.0 mi SE 17.3 mph 21.9 mph N/A   Overcast
12:35 PM 64.2 °F 41.4 °F 43% 30.29 in 10.0 mi SE 13.8 mph 18.4 mph N/A   Overcast
12:55 PM 64.6 °F 42.1 °F 44% 30.28 in 10.0 mi SE 12.7 mph 20.7 mph N/A   Overcast
1:15 PM 65.3 °F 42.1 °F 43% 30.27 in 10.0 mi ESE 10.4 mph 18.4 mph N/A   Overcast
1:35 PM 65.7 °F 42.4 °F 43% 30.26 in 10.0 mi ESE 11.5 mph 18.4 mph N/A   Overcast
1:55 PM 66.0 °F 42.6 °F 43% 30.25 in 10.0 mi SE 11.5 mph - N/A   Overcast
2:15 PM 66.7 °F 43.0 °F 42% 30.24 in 10.0 mi ESE 11.5 mph 18.4 mph N/A   Overcast
2:35 PM 67.1 °F 43.0 °F 42% 30.22 in 10.0 mi ESE 13.8 mph 19.6 mph N/A   Overcast
2:55 PM 67.5 °F 43.0 °F 41% 30.21 in 10.0 mi SE 11.5 mph 18.4 mph N/A   Overcast
3:15 PM 68.2 °F 42.8 °F 40% 30.20 in 10.0 mi SE 13.8 mph 21.9 mph N/A   Overcast
3:35 PM 68.2 °F 43.0 °F 40% 30.19 in 10.0 mi ESE 10.4 mph 21.9 mph N/A   Overcast
3:55 PM 68.5 °F 43.2 °F 40% 30.18 in 10.0 mi SE 15.0 mph 19.6 mph N/A   Overcast
4:15 PM 68.5 °F 43.3 °F 40% 30.17 in 10.0 mi SE 13.8 mph 18.4 mph N/A   Overcast
4:35 PM 68.9 °F 43.5 °F 40% 30.17 in 10.0 mi ESE 13.8 mph 23.0 mph N/A   Overcast
4:55 PM 68.9 °F 43.5 °F 40% 30.17 in 10.0 mi ESE 16.1 mph 23.0 mph N/A   Overcast
5:15 PM 69.1 °F 43.7 °F 40% 30.15 in 10.0 mi SE 18.4 mph 23.0 mph N/A   Overcast
5:35 PM 68.9 °F 44.1 °F 41% 30.16 in 10.0 mi SE 16.1 mph - N/A   Overcast
5:55 PM 69.1 °F 44.2 °F 41% 30.16 in 10.0 mi SE 15.0 mph 20.7 mph N/A   Overcast
6:15 PM 68.7 °F 44.6 °F 42% 30.16 in 10.0 mi SE 15.0 mph - N/A   Overcast
6:35 PM 68.2 °F 45.3 °F 44% 30.16 in 10.0 mi SE 11.5 mph 19.6 mph N/A   Overcast
6:55 PM 68.0 °F 45.5 °F 44% 30.16 in 10.0 mi SE 15.0 mph 20.7 mph N/A   Overcast
7:15 PM 67.6 °F 45.7 °F 45% 30.16 in 10.0 mi SE 16.1 mph - N/A   Overcast
7:35 PM 67.1 °F 45.9 °F 46% 30.16 in 10.0 mi ESE 17.3 mph - N/A   Overcast
7:55 PM 66.7 °F 46.4 °F 48% 30.16 in 10.0 mi SE 16.1 mph 19.6 mph N/A   Overcast
8:15 PM 66.4 °F 46.6 °F 49% 30.17 in 10.0 mi SE 16.1 mph 19.6 mph N/A   Overcast
8:35 PM 66.2 °F 46.9 °F 50% 30.17 in 10.0 mi SE 11.5 mph 17.3 mph N/A   Overcast
8:55 PM 66.0 °F 47.1 °F 50% 30.18 in 10.0 mi SE 13.8 mph 19.6 mph N/A   Overcast
9:15 PM 65.8 °F 47.7 °F 52% 30.18 in 10.0 mi SE 11.5 mph 19.6 mph N/A   Overcast
9:35 PM 65.7 °F 48.2 °F 53% 30.18 in 10.0 mi SE 13.8 mph - N/A   Overcast
9:55 PM 65.5 °F 48.2 °F 54% 30.18 in 10.0 mi SE 11.5 mph - N/A   Overcast
10:15 PM 65.3 °F 48.2 °F 54% 30.18 in 10.0 mi SE 13.8 mph - N/A   Overcast
10:35 PM 65.3 °F 48.6 °F 55% 30.18 in 10.0 mi SE 12.7 mph 18.4 mph N/A   Overcast
10:55 PM 65.3 °F 48.9 °F 55% 30.19 in 10.0 mi ESE 11.5 mph - N/A   Overcast
11:15 PM 64.9 °F 49.1 °F 56% 30.19 in 10.0 mi SE 10.4 mph - N/A   Overcast
11:35 PM 64.4 °F 49.5 °F 58% 30.19 in 10.0 mi ESE 13.8 mph 18.4 mph N/A   Overcast
11:55 PM 64.4 °F 49.6 °F 59% 30.18 in 10.0 mi SE 11.5 mph 17.3 mph N/A   Overcast